TimeEDT,TemperatureF,Dew PointF,Humidity,Sea Level PressureIn,VisibilityMPH,Wind Direction,Wind SpeedMPH,Gust SpeedMPH,PrecipitationIn,Events,Conditions,WindDirDegrees,DateUTC
12:53 AM,72.0,70.0,93,30.06,10.0,SSE,3.5,-,N/A,,Scattered Clouds,160,2013-07-02 04:53:00
1:45 AM,71.6,69.8,94,30.08,10.0,South,5.8,-,N/A,,Mostly Cloudy,190,2013-07-02 05:45:00
1:53 AM,72.0,70.0,93,30.06,10.0,South,4.6,-,N/A,,Mostly Cloudy,180,2013-07-02 05:53:00
2:53 AM,72.0,70.0,93,30.07,10.0,South,4.6,-,N/A,,Overcast,180,2013-07-02 06:53:00
3:33 AM,71.6,69.8,94,30.08,10.0,South,5.8,-,N/A,,Mostly Cloudy,170,2013-07-02 07:33:00
3:53 AM,72.0,70.0,93,30.07,10.0,South,4.6,-,N/A,,Mostly Cloudy,170,2013-07-02 07:53:00
4:53 AM,73.0,70.0,90,30.08,10.0,South,5.8,-,0.00,,Mostly Cloudy,170,2013-07-02 08:53:00
5:06 AM,71.6,69.8,94,30.10,10.0,South,4.6,-,N/A,,Overcast,170,2013-07-02 09:06:00
5:53 AM,72.0,70.0,93,30.09,9.0,South,5.8,-,N/A,,Overcast,170,2013-07-02 09:53:00
6:53 AM,73.0,70.0,90,30.11,9.0,South,4.6,-,N/A,,Mostly Cloudy,180,2013-07-02 10:53:00
7:14 AM,73.4,71.6,94,30.13,9.0,South,6.9,-,N/A,,Overcast,180,2013-07-02 11:14:00
7:53 AM,73.0,71.1,93,30.12,10.0,South,4.6,-,0.00,,Overcast,190,2013-07-02 11:53:00
8:53 AM,73.9,71.1,91,30.13,10.0,South,4.6,-,0.01,Rain,Light Rain,180,2013-07-02 12:53:00
10:16 AM,77.0,71.6,83,30.14,10.0,South,4.6,-,N/A,,Overcast,170,2013-07-02 14:16:00
10:53 AM,78.1,72.0,81,30.12,10.0,South,8.1,-,N/A,,Overcast,170,2013-07-02 14:53:00
11:53 AM,79.0,72.0,79,30.13,10.0,SSE,5.8,-,N/A,,Overcast,160,2013-07-02 15:53:00
12:49 PM,80.6,71.6,74,30.14,10.0,WSW,9.2,-,N/A,,Overcast,240,2013-07-02 16:49:00
12:53 PM,80.1,71.1,74,30.13,10.0,SW,8.1,-,N/A,,Overcast,220,2013-07-02 16:53:00
1:53 PM,66.9,62.1,84,30.15,3.0,NE,11.5,-,N/A,,Haze,40,2013-07-02 17:53:00
2:53 PM,64.9,61.0,87,30.15,4.0,ENE,12.7,19.6,N/A,,Overcast,60,2013-07-02 18:53:00
3:53 PM,64.9,61.0,87,30.14,4.0,NE,11.5,17.3,N/A,,Overcast,40,2013-07-02 19:53:00
4:53 PM,64.0,60.1,87,30.14,5.0,Variable,6.9,16.1,N/A,,Overcast,0,2013-07-02 20:53:00
5:53 PM,63.0,59.0,87,30.15,6.0,NE,10.4,-,N/A,,Overcast,40,2013-07-02 21:53:00
6:38 PM,60.8,59.0,94,30.18,2.0,NE,8.1,-,N/A,,Overcast,40,2013-07-02 22:38:00
6:53 PM,61.0,59.0,93,30.17,2.5,NE,6.9,-,N/A,,Overcast,40,2013-07-02 22:53:00
7:31 PM,60.8,57.2,88,30.18,1.5,NE,5.8,-,N/A,,Overcast,40,2013-07-02 23:31:00
7:53 PM,59.0,57.9,96,30.17,1.0,ENE,8.1,-,N/A,,Overcast,60,2013-07-02 23:53:00
8:05 PM,59.0,57.2,94,30.18,0.8,NE,6.9,-,N/A,,Overcast,50,2013-07-03 00:05:00
8:29 PM,60.8,57.2,88,30.19,1.2,NE,4.6,-,N/A,,Overcast,50,2013-07-03 00:29:00
8:53 PM,60.1,57.9,93,30.18,1.0,NE,6.9,-,N/A,,Overcast,40,2013-07-03 00:53:00
9:53 PM,60.1,59.0,96,30.19,1.2,NE,5.8,-,N/A,,Overcast,40,2013-07-03 01:53:00
10:53 PM,60.1,57.9,93,30.19,1.5,NNE,4.6,-,N/A,,Overcast,20,2013-07-03 02:53:00
11:50 PM,59.0,57.2,94,30.21,2.0,North,5.8,-,N/A,,Overcast,10,2013-07-03 03:50:00
11:53 PM,59.0,57.9,96,30.19,1.8,North,4.6,-,N/A,,Overcast,10,2013-07-03 03:53:00